Regional Weather Roundup
Issued by NWS

Home | Current Version | Previous Version | Graphics & Text | Print | Product List | Glossary On
Versions: 1 2 3 4 5 6 7 8 9 10 11 12 13 14 15 16 17 18 19 20 21 22 23 24 25 26 27 28 29 30 31 32 33 34 35 36 37 38 39 40 41 42 43 44 45 46 47 48 49 50
846
ASUS43 KBIS 241610
RWRND

NORTH DAKOTA REGIONAL WEATHER ROUNDUP
NATIONAL WEATHER SERVICE BISMARCK ND
1100 AM CDT THU MAY 24 2018

NOTE: "FAIR" INDICATES FEW OR NO CLOUDS BELOW 12,000 FEET WITH NO
SIGNIFICANT WEATHER AND/OR OBSTRUCTIONS TO VISIBILITY.


NDZ001>003-009>011-017-241700-
NORTHWEST NORTH DAKOTA

CITY           SKY/WX    TMP DP  RH WIND       PRES   REMARKS
WILLISTON      CLOUDY    68  61  78 SW10      29.77S
MINOT          SUNNY     78  57  48 S7        29.73F
MINOT AFB      SUNNY     78  58  49 W7        29.71F
$$

NDZ018>021-031>035-040>046-241700-
SOUTHWEST NORTH DAKOTA

CITY           SKY/WX    TMP DP  RH WIND       PRES   REMARKS
BISMARCK       SUNNY     75  57  53 SW12      29.79F
DICKINSON      MOSUNNY   72  53  51 W12G21    29.81S
GARRISON         N/A     76  54  46 SW14      29.75F
HETTINGER ARPT SUNNY     73  52  47 W17       29.85S
$$

NDZ004>008-012>016-024-026-027-054-241700-
NORTHEAST NORTH DAKOTA

CITY           SKY/WX    TMP DP  RH WIND       PRES   REMARKS
GRAND FORKS    PTSUNNY   80  65  59 SW16G29   29.78F
GRND FRKS AFB  FAIR      81  62  51 SW17      29.79S
DEVILS LAKE    FAIR      74  60  61 SW10      29.80F
$$

NDZ022-023-025-028>030-036>039-047>053-241700-
SOUTHEAST NORTH DAKOTA

CITY           SKY/WX    TMP DP  RH WIND       PRES   REMARKS
FARGO          LGT RAIN  74  65  73 SW20G26   29.85S
JAMESTOWN      MOSUNNY   75  59  57 S16G24    29.82F
$$





USA.gov is the U.S. government's official web portal to all federal, state and local government web resources and services.